When you browse on this site, cookies collect data to enhance your experience and personalize the content and advertising you see.
Visit our Privacy Policy to learn more. By continuing to use the site, you agree to this use of cookies and data.
  • In United Kingdom
  • List of Countries
  • For 7 days
  • Water Temperature
  • Satellite Maps
  • Weather Map
  • Weather Widgets
  • user-avatar
    Login

    Hourly Weather Solden

    Today, 26 April, Friday

    Time Temperature Precipitation Wind Pressure Humidity
    00:00 +1°C° 0.2 mm 2 mps 580 mmHg 97%
    01:00 +1°C° 0 mm 2 mps 580 mmHg 98%
    02:00 +1°C° 0.2 mm 2 mps 580 mmHg 98%
    03:00 +1°C° 0.2 mm 2 mps 580 mmHg 98%
    04:00 -1°C° 0.2 mm 2 mps 579 mmHg 97%
    05:00 +1°C° 0.4 mm 2 mps 579 mmHg 96%
    06:00 +1°C° 0.4 mm 2 mps 579 mmHg 95%
    07:00 +1°C° 0.4 mm 2 mps 580 mmHg 93%
    08:00 +2°C° 1 mm 2 mps 580 mmHg 90%
    09:00 +3°C° 1 mm 2 mps 580 mmHg 86%
    10:00 +2°C° 1 mm 3 mps 581 mmHg 82%
    11:00 +2°C° 1.7 mm 3 mps 581 mmHg 83%
    12:00 +2°C° 1.7 mm 3 mps 581 mmHg 84%
    13:00 +2°C° 1.7 mm 3 mps 581 mmHg 85%
    14:00 +2°C° 1.5 mm 3 mps 581 mmHg 86%
    15:00 +3°C° 1.5 mm 2 mps 581 mmHg 86%
    16:00 +2°C° 1.5 mm 2 mps 581 mmHg 87%
    17:00 +1°C° 0.7 mm 2 mps 581 mmHg 88%
    18:00 +1°C° 0.7 mm 1 mps 580 mmHg 89%
    19:00 +1°C° 0.7 mm 1 mps 580 mmHg 89%
    20:00 -1°C° 0.3 mm 1 mps 580 mmHg 89%
    21:00 -4°C° 0.3 mm 2 mps 580 mmHg 89%
    22:00 -5°C° 0.3 mm 2 mps 579 mmHg 89%
    23:00 -5°C° 0.1 mm 2 mps 579 mmHg 88%

    Tomorrow, 27 April, Saturday

    Time Temperature Precipitation Wind Pressure Humidity
    00:00 -6°C° 0.1 mm 2 mps 579 mmHg 87%
    01:00 -6°C° 0.1 mm 2 mps 579 mmHg 87%
    02:00 -6°C° 0.1 mm 2 mps 579 mmHg 86%
    03:00 -6°C° 0.1 mm 2 mps 579 mmHg 85%
    04:00 -6°C° 0.1 mm 2 mps 580 mmHg 85%
    05:00 -5°C° 0.1 mm 2 mps 580 mmHg 82%
    06:00 -4°C° 0.1 mm 2 mps 580 mmHg 78%
    07:00 -4°C° 0.1 mm 2 mps 581 mmHg 75%
    08:00 -2°C° 0 mm 2 mps 582 mmHg 69%
    09:00 -1°C° 0 mm 2 mps 582 mmHg 62%
    10:00 +2°C° 0 mm 2 mps 583 mmHg 56%
    11:00 +3°C° 0 mm 2 mps 583 mmHg 54%
    12:00 +6°C° 0 mm 1 mps 584 mmHg 53%
    13:00 +7°C° 0 mm 1 mps 584 mmHg 51%
    14:00 +7°C° 0 mm 1 mps 584 mmHg 51%
    15:00 +7°C° 0 mm 1 mps 584 mmHg 50%
    16:00 +6°C° 0 mm 1 mps 583 mmHg 50%
    17:00 +4°C° 0 mm 1 mps 583 mmHg 55%
    18:00 +3°C° 0 mm 1 mps 582 mmHg 59%
    19:00 +1°C° 0 mm 1 mps 581 mmHg 64%
    20:00 0°C° 0 mm 1 mps 581 mmHg 67%
    21:00 -1°C° 0 mm 1 mps 581 mmHg 70%
    22:00 -2°C° 0 mm 1 mps 581 mmHg 74%
    23:00 -2°C° 0 mm 1 mps 581 mmHg 75%

    Day after tomorrow, 28 April, Sunday

    Time Temperature Precipitation Wind Pressure Humidity
    00:00 -2°C° 0 mm 1 mps 581 mmHg 77%
    01:00 -3°C° 0 mm 1 mps 581 mmHg 79%
    02:00 -3°C° 0.1 mm 1 mps 580 mmHg 80%
    03:00 -3°C° 0.1 mm 1 mps 580 mmHg 80%
    04:00 -3°C° 0.1 mm 1 mps 580 mmHg 80%
    05:00 -2°C° 0.1 mm 1 mps 581 mmHg 77%
    06:00 -1°C° 0.1 mm 1 mps 581 mmHg 75%
    07:00 -1°C° 0.1 mm 1 mps 582 mmHg 72%
    08:00 0°C° 0.4 mm 1 mps 582 mmHg 70%
    09:00 -2°C° 0.4 mm 2 mps 582 mmHg 68%
    10:00 -1°C° 0.4 mm 2 mps 582 mmHg 66%
    11:00 -1°C° 0.4 mm 2 mps 582 mmHg 64%
    12:00 +1°C° 0.4 mm 2 mps 582 mmHg 61%
    13:00 +1°C° 0.4 mm 2 mps 582 mmHg 59%
    14:00 +1°C° 0.2 mm 2 mps 582 mmHg 59%
    15:00 +1°C° 0.2 mm 2 mps 582 mmHg 59%
    16:00 +1°C° 0.2 mm 2 mps 582 mmHg 60%
    17:00 -1°C° 0.3 mm 2 mps 581 mmHg 64%
    18:00 -2°C° 0.3 mm 2 mps 581 mmHg 69%
    19:00 -3°C° 0.3 mm 2 mps 581 mmHg 73%
    20:00 -4°C° 0.1 mm 2 mps 581 mmHg 75%
    21:00 -5°C° 0.1 mm 2 mps 581 mmHg 77%
    22:00 -6°C° 0.1 mm 2 mps 581 mmHg 78%
    23:00 -6°C° 0 mm 2 mps 580 mmHg 78%

    29 April, Monday

    Time Temperature Precipitation Wind Pressure Humidity
    00:00 -6°C° 0 mm 2 mps 580 mmHg 78%
    01:00 -7°C° 0 mm 2 mps 580 mmHg 77%
    02:00 -7°C° 0 mm 2 mps 580 mmHg 77%
    03:00 -7°C° 0 mm 2 mps 580 mmHg 77%
    04:00 -7°C° 0 mm 2 mps 579 mmHg 77%
    05:00 -7°C° 0 mm 2 mps 580 mmHg 75%
    06:00 -4°C° 0 mm 1 mps 580 mmHg 72%
    07:00 -3°C° 0 mm 1 mps 580 mmHg 70%
    08:00 -4°C° 0 mm 2 mps 581 mmHg 65%
    09:00 -3°C° 0 mm 2 mps 582 mmHg 60%
    10:00 -1°C° 0 mm 2 mps 582 mmHg 54%
    11:00 -1°C° 0.1 mm 2 mps 582 mmHg 54%
    12:00 +1°C° 0.1 mm 2 mps 582 mmHg 54%
    13:00 +2°C° 0.1 mm 2 mps 583 mmHg 53%
    14:00 +2°C° 0.1 mm 2 mps 582 mmHg 53%
    15:00 +2°C° 0.1 mm 2 mps 582 mmHg 53%
    16:00 +2°C° 0.1 mm 2 mps 582 mmHg 53%
    17:00 +1°C° 0.1 mm 1 mps 581 mmHg 59%
    18:00 0°C° 0.1 mm 1 mps 581 mmHg 65%
    19:00 -1°C° 0.1 mm 1 mps 580 mmHg 70%
    20:00 -2°C° 0 mm 1 mps 580 mmHg 73%
    21:00 -5°C° 0 mm 2 mps 580 mmHg 77%
    22:00 -6°C° 0 mm 2 mps 580 mmHg 80%
    23:00 -7°C° 0 mm 2 mps 580 mmHg 80%

    30 April, Tuesday

    Time Temperature Precipitation Wind Pressure Humidity
    00:00 -7°C° 0 mm 2 mps 580 mmHg 81%
    01:00 -7°C° 0 mm 2 mps 579 mmHg 81%
    02:00 -7°C° 0 mm 2 mps 579 mmHg 81%
    03:00 -8°C° 0 mm 2 mps 579 mmHg 80%
    04:00 -8°C° 0 mm 2 mps 579 mmHg 80%
    05:00 -6°C° 0 mm 2 mps 579 mmHg 76%
    06:00 -5°C° 0 mm 2 mps 580 mmHg 72%
    07:00 -4°C° 0 mm 2 mps 580 mmHg 67%
    08:00 -2°C° 0 mm 2 mps 581 mmHg 62%
    09:00 +1°C° 0 mm 2 mps 582 mmHg 57%
    10:00 +3°C° 0 mm 2 mps 582 mmHg 53%
    11:00 +4°C° 0.1 mm 2 mps 583 mmHg 52%
    12:00 +4°C° 0.1 mm 2 mps 583 mmHg 52%
    13:00 +5°C° 0.1 mm 2 mps 583 mmHg 51%
    14:00 +5°C° 0.2 mm 2 mps 583 mmHg 53%
    15:00 +4°C° 0.2 mm 2 mps 582 mmHg 55%
    16:00 +4°C° 0.2 mm 2 mps 582 mmHg 56%
    17:00 +3°C° 0.1 mm 2 mps 581 mmHg 62%
    18:00 +1°C° 0.1 mm 2 mps 581 mmHg 67%
    19:00 -1°C° 0.1 mm 2 mps 580 mmHg 72%
    20:00 -3°C° 0 mm 2 mps 580 mmHg 76%
    21:00 -4°C° 0 mm 2 mps 580 mmHg 79%
    22:00 -5°C° 0 mm 2 mps 579 mmHg 82%
    23:00 -5°C° 0 mm 2 mps 579 mmHg 82%

    1 May, Wednesday

    Time Temperature Precipitation Wind Pressure Humidity
    00:00 -6°C° 0 mm 2 mps 579 mmHg 81%
    01:00 -6°C° 0 mm 2 mps 579 mmHg 81%
    02:00 -6°C° 0 mm 2 mps 579 mmHg 80%
    03:00 -6°C° 0 mm 2 mps 578 mmHg 79%
    04:00 -6°C° 0 mm 2 mps 578 mmHg 78%
    05:00 -5°C° 0 mm 2 mps 579 mmHg 74%
    06:00 -3°C° 0 mm 2 mps 580 mmHg 70%
    07:00 0°C° 0 mm 1 mps 580 mmHg 66%
    08:00 +3°C° 0 mm 1 mps 581 mmHg 60%
    09:00 +5°C° 0 mm 1 mps 582 mmHg 55%
    10:00 +8°C° 0 mm 1 mps 583 mmHg 49%
    11:00 +9°C° 0 mm 1 mps 583 mmHg 47%
    12:00 +9°C° 0 mm 1 mps 583 mmHg 45%
    13:00 +10°C° 0 mm 1 mps 584 mmHg 43%
    14:00 +10°C° 0 mm 1 mps 583 mmHg 44%
    15:00 +10°C° 0 mm 1 mps 583 mmHg 45%
    16:00 +9°C° 0 mm 1 mps 582 mmHg 46%
    17:00 +7°C° 0 mm 1 mps 581 mmHg 53%
    18:00 +5°C° 0 mm 1 mps 580 mmHg 60%
    19:00 +3°C° 0 mm 1 mps 579 mmHg 66%
    20:00 +1°C° 0 mm 1 mps 579 mmHg 71%
    21:00 0°C° 0 mm 1 mps 579 mmHg 76%
    22:00 -3°C° 0 mm 2 mps 579 mmHg 81%
    23:00 -3°C° 0 mm 2 mps 578 mmHg 82%
    Show more